This demonstration page uses our WeatherBlox Daily Observations layout. Learn more.

Left ArrowRight Arrow

Hourly Observations for October 14, 2020

Temp ( °F °C ) Dew Point ( °F °C ) Humidity (%) Winds ( mph kmh ) Pressure ( in mb ) Visibility ( mi km ) Precip ( " mm )
12:53 am 00:53 Clear 54 12.2 35 1.7 49 49 S 10 17 29.86 1011 10 16 0.00 0.00
1:53 am 01:53 Clear 53 11.7 36 2.2 52 52 S 9 15 29.81 1009 10 16 0.00 0.00
2:53 am 02:53 Clear 53 11.7 36 2.2 52 52 S 7 11 29.76 1008 10 16 0.00 0.00
3:53 am 03:53 Clear 55 12.8 37 2.8 51 51 SSW 12 19 29.72 1006 10 16 0.00 0.00
4:53 am 04:53 Clear 54 12.2 37 2.8 53 53 SSW 8 13 29.68 1005 10 16 0.00 0.00
5:53 am 05:53 Clear 56 13.3 37 2.8 49 49 SSW 13 20 29.67 1005 10 16 0.00 0.00
6:53 am 06:53 Clear 56 13.3 37 2.8 49 49 SSW 13 20 29.65 1004 10 16 0.00 0.00
7:53 am 07:53 Sunny 55 12.8 36 2.2 49 49 SW 9 15 29.65 1004 10 16 0.00 0.00
8:53 am 08:53 Sunny 58 14.4 36 2.2 44 44 WNW 10 17 29.72 1007 10 16 0.00 0.00
9:53 am 09:53 Sunny 63 17.2 37 2.8 38 38 N 16 26 29.74 1007 10 16 0.00 0.00
10:53 am 10:53 Sunny 64 17.8 40 4.4 41 41 N 20 31 29.78 1008 10 16 0.00 0.00
11:53 am 11:53 Sunny 66 18.9 40 4.4 39 39 N 14 22 29.76 1008 10 16 0.00 0.00
12:53 pm 12:53 Sunny 70 21.1 38 3.3 31 31 N 24 39 29.77 1008 10 16 0.00 0.00
1:53 pm 13:53 Sunny 73 22.8 37 2.8 27 27 N 22 35 29.75 1007 10 16 0.00 0.00
2:53 pm 14:53 Sunny 72 22.2 36 2.2 27 27 NNW 24 39 29.77 1008 10 16 0.00 0.00
3:53 pm 15:53 Sunny 69 20.6 33 0.6 26 26 NNW 22 35 29.82 1010 10 16 0.00 0.00
4:53 pm 16:53 Sunny 66 18.9 32 0 28 28 NNW 18 30 29.85 1011 10 16 0.00 0.00
5:53 pm 17:53 Sunny 63 17.2 30 -1.1 29 29 NNW 13 20 29.87 1012 10 16 0.00 0.00
6:53 pm 18:53 Sunny 59 15 33 0.6 38 38 NW 9 15 29.89 1012 9 14 0.00 0.00
7:53 pm 19:53 Mostly Cloudy 59 15 34 1.1 39 39 WNW 8 13 29.93 1014 7 11 0.00 0.00
8:53 pm 20:53 Cloudy 57 13.9 35 1.7 44 44 W 8 13 29.94 1014 10 16 0.00 0.00
9:53 pm 21:53 Cloudy 56 13.3 35 1.7 46 46 WNW 6 9 29.94 1014 10 16 0.00 0.00
10:53 pm 22:53 Cloudy 57 13.9 34 1.1 42 42 N 18 30 30.00 1016 10 16 0.00 0.00
11:53 pm 23:53 Mostly Cloudy 55 12.8 36 2.2 49 49 N 21 33 30.02 1017 10 16 0.00 0.00

Powered by AerisWeather